Temperature
14 14 14 15 12 11 12 13 13 14 15 16 17 17 16 17 17 17 17 18 18 19 19 18 18 17 17 17 17 17 17 17 17 17 17 17 17 17 17 17 17 16 16 16 16 16 16 15 15
13 13 14 14 11 12 13 12 13 14 15 16 17 17 16 17 17 17 17 18 18 18 18 18 18 17 17 17 17 17 17 17 17 17 17 17 17 17 17 16 16 16 16 16 16 16 15 15 15
13 13 14 10 11 11 13 13 13 14 15 16 16 16 16 16 16 16 16 17 17 18 18 17 17 17 17 17 17 17 17 17 17 16 16 16 16 16 16 16 16 16 16 15 15 15 15 15 15
13 13 12 10 11 11 12 13 12 13 15 15 15 15 15 15 15 15 16 16 17 17 17 17 16 16 17 17 17 16 16 16 16 16 16 16 16 16 16 16 16 16 15 15 15 15 15 15 14
13 12 10 10 11 11 11 12 13 12 13 14 14 13 14 15 15 15 16 16 16 16 16 16 16 16 16 16 16 16 16 16 16 16 16 16 16 16 16 16 15 15 15 15 15 14 14 14 14
12 10 9 10 10 11 11 12 13 12 12 13 13 13 14 15 15 15 15 16 16 16 16 16 16 16 16 16 16 16 16 16 16 16 16 16 16 16 15 15 15 15 15 15 14 14 14 14 14
11 8 9 10 10 10 11 12 12 11 11 12 13 12 14 14 14 14 14 15 15 15 15 15 15 15 15 15 15 16 15 15 15 15 15 16 15 15 15 15 15 15 15 15 14 14 14 14 14
11 8 9 9 9 10 11 11 11 11 11 12 13 12 13 14 14 14 14 14 14 14 15 15 15 15 15 15 15 15 15 15 15 15 15 15 15 15 15 15 15 15 15 14 14 14 14 14 14
11 8 8 9 9 10 10 10 11 11 11 12 12 12 12 12 13 13 13 13 14 14 14 14 14 14 15 15 15 15 15 15 15 15 15 15 15 15 15 14 14 14 14 14 14 14 13 13 13
9 7 8 9 9 9 9 9 10 10 10 10 11 12 12 12 12 12 12 13 13 13 13 13 14 14 14 14 14 14 15 15 14 14 14 14 14 14 14 14 14 14 14 14 14 13 13 13 13
8 8 8 9 9 9 9 9 9 9 8 10 11 11 12 12 12 12 12 12 12 12 13 13 13 13 13 14 14 14 14 14 14 14 14 14 14 14 14 14 14 14 14 13 13 13 13 13 13
7 7 8 8 9 8 8 8 8 8 9 11 10 10 11 11 11 11 11 11 12 12 12 13 13 13 13 13 13 13 13 13 14 14 14 14 14 14 14 14 13 14 14 13 13 13 13 13 13
7 7 8 8 8 8 8 8 8 8 10 10 10 10 10 11 11 11 11 11 11 11 12 12 12 12 12 12 13 13 13 13 13 13 13 13 13 13 13 13 13 13 13 13 13 13 13 12 12
6 6 7 7 8 8 7 7 7 9 10 10 10 10 10 10 10 10 10 11 11 11 11 11 12 12 12 12 12 12 12 12 12 13 13 13 13 13 13 13 13 13 13 13 13 13 12 12 12
6 6 6 7 7 7 7 6 7 10 10 10 10 10 10 10 10 10 10 10 10 11 11 11 11 11 11 11 11 11 12 12 12 12 12 12 12 12 13 13 13 13 13 12 12 12 12 12 12
6 5 6 7 7 7 7 6 7 10 9 9 9 9 9 9 10 10 10 10 10 10 10 10 11 11 11 11 11 11 11 11 11 12 12 12 12 12 12 12 12 12 12 12 12 12 11 11 11
5 5 5 6 6 7 6 6 7 9 8 8 8 8 8 9 9 9 9 10 10 10 10 10 10 10 10 10 10 11 11 11 11 11 11 11 11 12 12 12 12 12 12 12 11 11 11 11 11
6 5 5 5 6 6 5 5 7 8 7 7 7 8 8 8 9 9 9 9 9 9 9 9 9 10 10 10 10 10 10 10 10 11 11 11 11 11 11 11 11 11 11 11 11 11 11 11 11
6 5 4 4 5 5 5 5 6 7 6 6 7 7 8 8 8 9 9 9 9 9 9 9 9 9 9 9 9 9 10 10 10 10 10 10 11 11 11 11 11 11 11 11 11 11 10 10 10
5 4 4 4 5 6 4 4 5 5 5 6 7 7 8 8 8 9 9 9 9 9 9 9 8 8 8 9 9 9 9 9 9 10 10 10 10 10 10 10 10 11 10 10 10 10 10 10 10
5 4 4 5 4 4 3 4 5 5 6 6 7 7 7 7 8 8 8 8 8 8 8 8 8 8 8 8 8 8 8 8 8 9 9 10 10 10 10 10 10 10 10 10 10 10 10 10 9
5 5 5 5 4 3 3 4 4 4 4 5 6 7 7 8 8 8 8 8 8 8 8 8 8 8 8 8 8 8 8 8 8 8 9 9 9 9 9 9 9 10 10 10 10 10 10 10 9
5 5 5 4 3 2 2 2 3 3 4 5 5 6 7 7 7 8 8 8 8 8 8 7 7 7 7 7 7 7 7 7 8 8 8 8 9 9 9 9 9 9 9 9 9 9 10 10 10
5 4 3 1 1 2 2 1 3 3 4 5 5 6 7 7 7 7 7 7 7 7 7 7 7 7 7 7 7 7 7 7 7 7 8 8 8 8 8 8 8 9 9 9 9 9 9 9 9
4 3 3 2 1 2 2 2 3 4 4 4 4 6 6 7 7 7 7 7 7 7 7 7 7 7 7 7 7 7 7 7 7 7 7 7 8 8 8 8 8 8 9 9 9 9 9 9 9
4 3 3 3 2 2 2 2 3 4 4 5 5 5 6 6 6 6 6 7 7 7 7 6 6 6 6 6 6 6 6 6 6 6 7 7 7 7 8 8 8 8 8 9 9 9 9 9 9
3 3 3 2 1 0 1 1 2 3 3 4 4 5 5 6 6 6 6 6 6 6 6 6 6 6 6 6 6 6 6 6 6 6 6 7 7 7 8 8 8 8 8 8 9 9 9 9 9
3 2 1 1 1 1 2 1 3 3 4 4 3 4 5 6 6 6 6 5 6 6 6 6 6 6 6 6 6 5 6 6 6 6 6 6 7 7 7 7 8 8 8 8 8 8 8 9 9
2 2 2 0 0 1 1 4 4 3 4 3 3 4 5 5 5 5 5 5 5 5 5 5 5 5 5 5 5 5 5 5 5 6 6 6 6 7 7 7 7 7 7 8 8 8 8 8 9
2 2 1 1 0 -0 0 3 5 3 3 3 3 4 5 5 5 5 5 5 5 5 5 5 5 5 5 5 5 5 5 5 5 5 6 6 6 7 7 7 7 7 7 7 8 7 8 8 8
Wind_Speed
7 4 3 4 5 3 4 4 3 2 2 2 2 2 3 2 2 2 4 5 5 3 1 4 5 6 7 9 10 10 10 11 12 13 14 15 16 16 17 17 17 17 16 16 16 15 16 16 15
3 2 4 5 4 2 5 4 4 3 4 4 3 1 2 2 1 2 6 8 6 3 2 2 3 5 7 8 9 10 11 11 12 13 14 14 15 16 17 17 17 17 16 16 15 15 15 15 15
2 4 4 4 4 6 4 2 3 4 4 3 3 3 1 2 3 3 6 8 5 3 3 2 2 4 6 7 8 9 11 12 12 12 14 15 15 15 16 17 17 17 16 16 16 16 15 15 15
3 4 4 2 6 5 3 2 3 5 5 4 3 4 3 2 2 3 7 6 5 4 5 4 3 4 5 6 7 8 10 11 12 13 13 14 15 15 16 16 17 17 17 17 17 16 16 16 16
4 4 2 2 6 4 3 4 3 3 4 4 3 3 4 2 2 5 7 7 5 4 5 4 4 4 5 6 7 8 9 10 12 13 13 13 15 16 15 16 16 17 18 18 18 17 16 16 15
4 4 2 5 6 4 3 4 2 3 4 5 4 3 4 2 6 8 8 7 5 4 4 4 4 5 5 5 6 7 8 9 11 12 13 13 13 15 16 17 16 17 18 18 18 18 17 16 16
4 4 4 4 4 3 2 3 1 3 4 4 3 3 5 5 7 8 8 7 6 5 4 4 4 4 5 5 6 7 8 9 10 11 12 12 13 14 17 17 17 17 17 19 19 19 18 17 16
4 3 2 3 4 5 2 4 1 2 6 4 1 3 5 7 9 8 7 6 5 4 4 3 4 4 4 5 6 7 8 9 10 11 11 11 12 13 15 17 18 18 18 18 19 19 19 18 17
3 2 4 5 5 4 2 4 5 4 5 5 4 5 6 8 9 9 7 6 5 5 5 4 4 4 4 5 6 7 7 9 9 9 10 10 9 10 11 14 17 19 19 19 19 20 19 18 17
4 3 7 3 2 3 4 4 6 5 7 6 7 7 7 7 7 8 8 9 8 8 6 4 4 4 4 4 4 4 6 6 6 6 7 7 7 8 9 12 16 18 19 19 19 20 19 15 13
2 5 3 3 3 3 5 6 4 5 9 8 9 11 9 8 9 9 9 9 9 8 7 6 5 4 4 3 3 2 3 3 4 5 6 6 6 6 7 8 10 13 15 13 14 14 12 12 11
0 3 4 5 3 4 5 5 6 8 12 10 9 10 9 10 11 10 10 10 9 8 8 6 5 4 4 4 3 3 3 3 4 4 6 6 4 5 5 5 6 8 9 9 8 7 10 11 12
1 4 5 6 8 8 8 9 8 12 14 11 11 10 11 11 11 10 10 9 8 8 8 8 6 5 5 4 4 4 4 4 5 5 6 7 6 6 6 6 6 7 8 9 8 8 9 10 10
2 5 8 8 8 5 7 9 7 12 8 8 10 11 11 11 10 10 9 9 9 8 8 8 6 5 5 4 4 4 4 4 4 4 6 7 7 7 7 7 7 7 8 9 9 9 9 9 9
2 6 8 5 4 3 4 9 9 11 6 10 11 11 12 11 10 11 10 9 8 8 7 7 7 5 5 5 6 5 5 4 5 5 6 7 7 8 8 7 7 7 9 10 8 8 7 7 8
3 3 6 6 3 3 2 10 10 7 7 12 12 12 12 12 10 10 10 9 7 6 7 7 7 6 6 5 5 5 5 5 6 5 6 7 8 8 8 7 8 8 8 9 9 9 8 8 8
3 3 6 9 4 2 3 12 13 8 8 13 13 12 11 11 11 8 8 8 7 6 6 6 7 6 6 6 5 5 5 6 6 6 6 7 8 9 8 8 8 9 8 8 9 8 8 8 8
4 5 6 8 5 5 9 16 19 12 9 12 12 11 10 10 11 9 8 7 6 6 5 5 6 6 6 5 4 4 5 5 6 6 7 8 8 10 9 7 9 9 8 8 9 9 8 7 8
3 6 10 11 7 7 12 19 21 15 10 11 11 9 9 10 9 7 6 6 5 5 5 5 5 6 4 3 4 3 4 5 5 6 8 9 9 9 9 7 8 9 9 10 10 8 10 7 7
5 8 10 10 4 6 12 18 16 12 9 9 9 9 9 9 8 8 6 5 4 5 5 5 6 6 5 5 5 4 5 5 6 6 7 8 9 10 10 10 9 10 9 10 11 9 8 6 8
6 7 8 9 9 5 8 11 7 5 5 6 6 7 7 8 9 9 7 6 5 5 5 6 7 6 6 6 4 4 3 3 5 5 6 7 9 10 10 11 11 11 11 11 11 13 11 10 8
7 7 8 7 6 6 4 7 8 6 7 7 7 6 7 8 8 8 7 7 7 7 6 7 7 6 6 5 5 6 6 7 7 7 7 8 9 9 10 10 11 12 11 11 12 12 10 12 11
6 3 4 4 3 5 2 5 10 5 6 7 7 7 8 8 7 8 8 8 8 7 6 6 7 7 6 6 6 7 8 8 6 6 7 8 8 9 10 11 11 11 10 11 12 12 12 11 11
2 3 2 3 2 4 4 5 8 5 6 6 6 7 8 8 8 8 8 7 7 7 6 6 7 7 7 7 7 8 9 8 8 9 8 8 7 7 10 11 11 11 10 11 12 12 14 13 11
3 4 5 6 4 6 2 4 10 8 7 7 9 9 9 8 8 8 9 8 8 8 7 7 7 8 8 8 8 8 9 9 9 10 9 8 7 8 10 11 10 10 11 12 12 12 13 14 14
2 5 3 4 5 6 4 7 8 7 7 7 7 8 8 8 8 8 9 9 9 9 8 8 8 8 8 9 9 8 9 8 8 9 9 9 9 9 10 11 11 11 12 12 12 10 12 13 14
3 3 4 3 3 6 7 8 10 7 8 7 7 7 8 9 9 9 9 9 9 9 9 9 9 9 9 9 9 8 8 9 9 10 9 8 8 8 10 10 11 11 12 13 12 10 12 13 13
4 6 4 3 3 7 7 7 6 7 8 8 7 8 9 9 10 10 10 9 9 9 9 8 8 9 10 9 8 8 8 9 9 9 10 8 9 8 9 10 11 11 12 12 12 11 11 13 12
4 4 4 4 4 4 7 8 6 8 8 8 9 9 9 10 11 10 10 9 9 9 8 8 8 9 9 8 8 9 9 9 9 9 9 8 8 9 10 10 10 11 11 12 12 11 12 14 12
6 7 7 5 6 5 6 10 6 7 7 7 10 10 10 11 11 10 10 9 8 8 8 8 8 8 8 7 8 8 8 8 8 9 8 7 8 9 10 10 10 10 11 11 12 12 12 13 14
Wind_Direction
351 7 61 57 59 58 234 238 228 273 264 275 270 212 176 180 166 187 306 339 336 338 275 219 200 189 188 187 183 177 173 173 171 168 165 164 163 161 159 158 157 155 152 148 144 140 137 133 131
345 32 57 66 105 195 248 228 223 238 280 318 338 17 28 338 346 358 341 325 332 341 335 273 213 197 194 194 194 187 181 179 180 177 174 171 170 168 165 164 162 159 155 151 148 145 141 137 136
18 52 85 90 156 196 214 208 225 281 310 351 350 7 28 323 352 347 316 315 341 352 346 312 264 211 201 198 201 198 192 189 187 185 182 179 177 175 172 168 165 162 158 154 151 148 144 141 140
67 50 61 106 220 226 227 273 307 322 342 9 17 338 330 330 356 311 318 338 360 345 342 322 286 242 222 212 209 206 204 200 196 192 187 185 182 181 178 175 169 166 163 159 156 151 147 146 145
58 78 83 241 243 252 261 294 314 337 337 348 7 328 299 298 325 333 345 353 353 334 336 325 301 265 244 234 224 216 212 208 204 200 195 191 190 186 182 178 174 171 168 165 162 157 154 153 151
61 74 136 231 246 268 284 307 330 340 325 331 349 310 266 288 352 343 345 340 335 320 324 325 307 285 260 244 239 228 222 215 209 206 203 199 195 193 188 183 178 175 173 169 166 162 160 159 158
105 116 191 227 260 275 298 336 48 324 315 303 301 283 277 307 336 340 335 330 332 328 324 326 318 298 283 262 246 241 231 227 218 210 204 202 202 198 195 187 180 178 177 173 170 167 164 164 162
114 109 187 235 241 255 327 350 337 295 275 283 255 244 273 297 321 332 327 324 323 318 314 310 318 310 292 272 256 251 246 236 230 219 210 204 205 203 198 191 185 182 180 176 174 171 169 167 164
86 95 222 227 224 253 332 329 308 291 269 282 254 239 262 301 320 328 326 321 313 310 302 293 296 301 298 287 270 255 248 243 233 226 214 207 204 200 195 193 188 185 182 180 178 174 172 166 165
92 186 229 233 228 274 304 296 299 308 297 279 277 275 288 300 311 312 307 305 300 295 292 280 278 283 285 285 283 266 247 242 235 222 211 203 198 196 192 191 191 188 183 181 180 177 171 162 158
131 205 249 278 277 291 293 287 277 269 273 255 268 288 302 301 304 300 292 285 283 279 278 280 271 274 273 269 262 261 254 234 232 223 210 201 192 189 183 182 188 187 180 177 176 174 164 156 152
248 257 257 277 303 304 281 283 276 239 249 261 268 281 289 289 290 288 287 288 288 290 286 278 268 264 267 264 257 244 249 236 220 219 210 192 190 190 182 182 182 181 175 169 164 163 160 157 157
263 286 287 279 284 269 265 260 262 259 262 276 282 282 280 277 280 278 279 283 288 290 291 284 270 259 258 256 251 248 237 238 223 214 212 202 196 202 194 187 184 186 176 172 170 168 167 164 162
292 294 294 287 278 269 264 269 254 263 271 282 283 282 283 276 274 278 283 285 286 285 291 286 275 261 255 252 246 241 232 234 233 217 218 210 203 200 200 194 190 190 182 176 175 175 174 173 168
330 320 312 286 278 279 296 288 243 256 287 287 285 283 287 281 274 270 269 272 276 279 282 286 277 267 260 258 251 243 238 225 226 224 221 214 208 201 200 196 194 191 184 177 172 172 171 173 170
15 354 315 300 307 293 314 280 265 270 285 284 285 286 288 283 277 271 269 268 270 273 276 282 290 280 268 261 258 246 237 233 226 219 218 219 211 207 202 202 197 187 183 180 178 177 176 179 176
18 317 286 299 290 292 257 270 276 288 281 281 285 287 288 291 291 284 278 272 270 264 268 277 286 278 273 268 261 254 240 234 228 219 218 222 219 208 207 209 198 185 185 189 186 181 177 179 179
269 272 274 276 284 285 269 269 282 288 276 277 283 286 288 289 288 288 285 284 279 269 263 266 283 281 276 275 269 264 249 239 230 221 222 224 224 215 208 211 198 185 186 191 188 181 178 178 173
242 257 273 271 273 282 269 277 285 288 280 279 281 282 282 282 280 282 284 291 297 286 274 272 283 278 276 274 264 260 255 247 239 228 225 223 226 220 209 215 201 191 193 193 190 182 177 175 159
248 270 277 285 284 283 284 283 279 274 261 258 267 280 284 287 295 296 294 294 293 283 278 276 277 266 262 260 252 246 250 247 241 238 228 224 223 223 217 211 204 197 196 193 191 179 174 176 171
254 245 262 281 312 303 310 300 287 285 279 280 278 278 287 281 279 288 292 286 289 288 282 280 276 270 265 269 272 274 271 263 251 245 234 226 224 224 219 215 207 200 197 199 195 188 180 181 186
268 245 252 281 315 304 12 306 291 296 307 295 293 299 298 296 285 285 289 288 280 277 283 278 277 278 272 267 267 260 256 256 251 243 240 236 227 224 217 213 209 203 201 201 198 197 188 179 185
241 286 273 282 255 289 252 237 286 306 295 286 290 297 302 305 298 289 281 277 278 276 279 285 287 281 279 270 262 262 257 253 255 249 243 240 234 227 222 213 209 202 201 202 201 199 192 188 187
259 354 1 39 66 286 241 203 282 260 246 275 289 297 304 308 308 303 289 286 284 283 282 281 284 284 280 276 270 261 262 261 260 257 244 240 237 231 224 216 209 204 200 200 201 202 196 193 191
69 48 355 348 349 259 239 235 255 253 245 253 274 291 299 302 306 310 304 298 295 290 284 281 281 284 286 280 274 261 258 253 249 252 242 241 237 237 224 214 209 205 204 203 200 200 201 196 192
177 139 166 258 269 290 287 247 256 259 266 266 272 280 295 301 304 306 303 293 288 284 284 282 281 284 287 281 277 267 259 254 252 250 246 240 232 231 220 213 211 209 205 203 201 202 203 197 196
148 192 177 173 276 279 271 278 295 277 285 285 288 291 291 297 304 304 302 293 287 284 279 276 276 281 283 281 277 275 265 259 259 257 248 243 234 229 220 212 211 211 209 204 198 203 206 197 195
171 152 112 151 268 277 282 269 261 284 282 290 296 294 289 298 305 304 302 296 288 282 277 276 273 274 279 283 277 278 274 268 264 257 248 243 235 225 220 214 211 209 208 203 201 202 205 197 196
150 158 168 180 205 229 278 271 229 241 261 275 282 285 290 297 300 300 298 295 293 290 287 284 284 281 283 282 284 282 278 275 274 261 247 242 237 226 217 217 211 208 207 201 200 203 201 198 195
191 190 170 195 237 225 257 274 251 239 260 268 281 291 297 295 297 297 294 295 299 298 295 293 291 286 282 280 283 283 282 278 276 271 257 247 245 231 219 213 210 209 207 202 200 203 200 197 194
Height
1486 1487 1490 1492 1496 1505 1503 1497 1494 1492 1490 1488 1487 1487 1487 1488 1490 1495 1490 1486 1485 1484 1484 1484 1485 1486 1487 1489 1490 1491 1493 1495 1496 1497 1498 1500 1501 1503 1504 1505 1506 1507 1508 1509 1510 1511 1512 1513 1513
1486 1488 1491 1492 1501 1507 1501 1494 1493 1490 1489 1487 1486 1486 1486 1487 1488 1488 1486 1485 1484 1484 1484 1485 1485 1486 1487 1488 1490 1491 1492 1494 1495 1496 1497 1499 1500 1502 1503 1504 1505 1507 1508 1509 1510 1511 1511 1512 1513
1486 1488 1491 1494 1500 1502 1495 1491 1490 1488 1487 1487 1486 1486 1487 1488 1488 1487 1487 1485 1484 1484 1484 1484 1485 1486 1487 1488 1489 1490 1491 1493 1494 1495 1496 1498 1499 1500 1502 1503 1504 1505 1507 1508 1509 1510 1511 1512 1513
1487 1490 1491 1497 1496 1495 1492 1490 1489 1488 1487 1487 1487 1487 1487 1488 1488 1487 1485 1484 1484 1483 1483 1484 1484 1485 1486 1487 1488 1489 1490 1491 1492 1493 1495 1496 1497 1499 1500 1502 1503 1504 1505 1507 1508 1509 1510 1511 1512
1487 1489 1495 1498 1495 1492 1490 1489 1488 1488 1488 1487 1487 1487 1486 1487 1486 1485 1484 1483 1482 1482 1482 1483 1483 1484 1485 1486 1486 1487 1488 1489 1490 1491 1493 1494 1496 1497 1499 1500 1501 1503 1504 1505 1507 1508 1509 1511 1512
1488 1490 1499 1498 1494 1492 1490 1489 1488 1488 1488 1488 1487 1486 1485 1485 1484 1483 1482 1482 1481 1481 1481 1481 1482 1482 1483 1483 1484 1485 1486 1487 1487 1489 1490 1492 1493 1495 1496 1498 1499 1500 1502 1503 1505 1506 1508 1509 1511
1489 1493 1496 1495 1495 1492 1490 1488 1488 1489 1488 1488 1487 1486 1483 1483 1483 1482 1481 1480 1480 1479 1479 1479 1480 1480 1480 1481 1482 1482 1483 1484 1485 1486 1487 1489 1490 1492 1493 1495 1496 1498 1499 1501 1503 1505 1506 1508 1509
1488 1493 1495 1496 1495 1492 1490 1489 1489 1488 1487 1487 1486 1485 1483 1482 1480 1479 1479 1478 1478 1477 1477 1477 1477 1477 1477 1478 1478 1479 1480 1481 1482 1483 1484 1485 1487 1489 1490 1492 1494 1495 1497 1499 1501 1503 1504 1506 1508
1488 1496 1496 1494 1493 1490 1489 1488 1488 1487 1485 1484 1483 1483 1482 1480 1478 1476 1475 1475 1474 1474 1474 1474 1474 1474 1474 1474 1475 1475 1476 1477 1478 1479 1480 1482 1484 1485 1487 1489 1490 1492 1494 1496 1498 1500 1502 1504 1506
1489 1496 1492 1490 1489 1489 1488 1488 1487 1485 1483 1481 1479 1479 1478 1477 1475 1473 1472 1471 1470 1470 1470 1470 1470 1470 1470 1470 1471 1471 1472 1473 1474 1475 1476 1478 1479 1481 1483 1485 1487 1489 1491 1493 1496 1498 1500 1502 1504
1489 1491 1489 1488 1488 1488 1487 1486 1485 1484 1480 1478 1477 1475 1473 1473 1471 1470 1469 1468 1466 1466 1465 1465 1465 1466 1466 1466 1466 1466 1467 1468 1469 1470 1472 1473 1475 1477 1479 1481 1483 1485 1487 1490 1492 1495 1497 1499 1501
1490 1489 1488 1487 1487 1486 1486 1484 1482 1480 1476 1474 1474 1472 1470 1469 1467 1466 1465 1463 1463 1461 1461 1461 1461 1461 1461 1462 1462 1462 1462 1463 1464 1465 1467 1468 1470 1471 1473 1476 1478 1480 1482 1485 1488 1490 1493 1495 1498
1490 1488 1486 1485 1485 1484 1483 1481 1479 1473 1471 1471 1470 1468 1467 1465 1463 1462 1461 1459 1458 1457 1456 1456 1456 1456 1456 1457 1457 1457 1457 1458 1458 1460 1462 1464 1464 1466 1468 1471 1473 1476 1477 1480 1483 1486 1489 1491 1494
1489 1487 1485 1482 1481 1480 1479 1476 1475 1466 1468 1467 1465 1464 1462 1461 1459 1457 1456 1455 1454 1453 1452 1451 1451 1451 1451 1451 1451 1452 1452 1453 1454 1455 1457 1458 1460 1461 1463 1465 1468 1471 1473 1475 1478 1481 1485 1488 1490
1488 1488 1484 1480 1479 1478 1478 1474 1469 1464 1465 1463 1461 1459 1457 1456 1454 1452 1451 1450 1449 1448 1448 1447 1447 1447 1446 1446 1446 1446 1447 1448 1449 1449 1451 1453 1454 1456 1458 1460 1462 1466 1469 1471 1473 1476 1480 1483 1486
1489 1490 1488 1480 1478 1476 1480 1474 1462 1462 1461 1458 1456 1454 1452 1450 1449 1448 1447 1446 1445 1444 1443 1443 1442 1442 1441 1441 1441 1441 1441 1442 1443 1444 1446 1447 1449 1451 1452 1454 1457 1460 1463 1466 1468 1471 1474 1478 1481
1492 1493 1490 1483 1477 1476 1477 1471 1458 1459 1458 1454 1451 1449 1447 1445 1444 1443 1442 1441 1440 1440 1439 1438 1438 1437 1436 1436 1436 1436 1436 1436 1438 1438 1440 1442 1444 1445 1447 1449 1451 1454 1457 1460 1463 1465 1469 1472 1476
1490 1492 1490 1486 1478 1476 1475 1466 1455 1454 1453 1450 1447 1445 1443 1441 1440 1439 1438 1437 1436 1435 1435 1434 1433 1432 1432 1431 1431 1430 1430 1430 1432 1432 1434 1435 1437 1440 1441 1443 1445 1448 1451 1454 1458 1460 1464 1468 1471
1489 1490 1489 1483 1476 1475 1469 1461 1451 1448 1447 1445 1442 1441 1439 1437 1436 1435 1434 1433 1432 1431 1430 1429 1429 1428 1427 1426 1425 1424 1424 1424 1425 1427 1428 1429 1431 1433 1435 1437 1439 1441 1444 1448 1452 1456 1458 1462 1467
1488 1489 1486 1478 1474 1472 1466 1457 1447 1443 1442 1440 1439 1437 1435 1433 1432 1431 1430 1429 1428 1427 1426 1425 1425 1423 1422 1421 1420 1419 1418 1418 1419 1420 1421 1423 1425 1427 1429 1430 1433 1435 1438 1442 1446 1449 1452 1456 1461
1485 1486 1482 1479 1474 1471 1470 1455 1445 1440 1438 1437 1436 1434 1433 1431 1429 1427 1427 1426 1425 1423 1422 1421 1420 1419 1417 1416 1415 1414 1413 1413 1413 1413 1414 1416 1418 1420 1422 1424 1426 1428 1432 1435 1438 1442 1445 1450 1454
1482 1477 1477 1477 1480 1478 1476 1468 1448 1442 1438 1435 1433 1432 1430 1428 1426 1425 1424 1423 1421 1420 1419 1417 1416 1414 1413 1412 1411 1409 1408 1406 1406 1407 1408 1409 1411 1412 1415 1417 1419 1421 1424 1428 1432 1436 1440 1444 1447
1478 1475 1476 1476 1479 1482 1478 1478 1453 1445 1440 1434 1431 1429 1428 1426 1424 1422 1421 1420 1418 1417 1415 1413 1411 1410 1409 1407 1406 1404 1403 1402 1401 1401 1402 1403 1404 1405 1408 1410 1412 1414 1417 1421 1426 1430 1434 1437 1441
1475 1476 1478 1483 1485 1485 1476 1479 1458 1446 1437 1432 1429 1427 1425 1424 1422 1420 1417 1416 1415 1413 1411 1410 1408 1406 1404 1402 1400 1399 1397 1396 1395 1395 1395 1396 1397 1399 1401 1403 1405 1407 1410 1414 1418 1423 1426 1431 1436
1477 1482 1488 1488 1492 1483 1472 1472 1454 1435 1432 1430 1428 1425 1423 1422 1419 1417 1414 1412 1411 1409 1407 1405 1403 1401 1399 1397 1395 1393 1391 1390 1389 1388 1388 1388 1389 1391 1392 1395 1397 1400 1403 1408 1412 1416 1420 1424 1429
1478 1481 1490 1491 1490 1478 1471 1464 1443 1430 1427 1426 1425 1423 1420 1418 1416 1414 1411 1409 1407 1405 1403 1400 1398 1395 1393 1391 1389 1387 1386 1384 1383 1382 1382 1382 1382 1383 1385 1388 1391 1393 1397 1401 1405 1409 1413 1418 1422
1479 1482 1482 1490 1492 1491 1472 1459 1441 1427 1424 1423 1421 1419 1417 1415 1413 1411 1408 1405 1403 1400 1398 1396 1393 1390 1388 1386 1383 1381 1379 1378 1377 1376 1376 1375 1375 1376 1378 1381 1384 1387 1391 1394 1398 1402 1407 1411 1415
1474 1479 1487 1489 1489 1482 1468 1459 1443 1429 1424 1421 1419 1417 1414 1412 1410 1407 1404 1401 1398 1396 1393 1391 1388 1385 1383 1380 1378 1376 1374 1372 1370 1370 1369 1369 1369 1371 1372 1375 1378 1381 1384 1387 1391 1395 1400 1404 1409
1477 1479 1479 1485 1485 1483 1472 1444 1428 1425 1420 1419 1417 1414 1412 1409 1406 1403 1400 1397 1394 1391 1388 1386 1383 1380 1377 1375 1372 1370 1367 1365 1364 1362 1362 1362 1363 1365 1367 1369 1371 1374 1377 1380 1385 1389 1394 1398 1402
1468 1470 1474 1480 1480 1481 1472 1440 1419 1419 1417 1416 1414 1411 1409 1406 1403 1399 1396 1393 1389 1386 1383 1381 1378 1375 1372 1370 1368 1364 1362 1359 1358 1357 1356 1356 1357 1359 1361 1363 1365 1368 1371 1374 1378 1383 1387 1391 1396